| time (UTC) | temp C | wind direction | speed KPH | gust KPH | rain 1hr cm | rain 24hr cm | rain mn cm | humidity % | barometer mb |
| 20260504070211 | 2 | 242 | 0.0 | 0.0 | 0.00 | 0.00 | 0.00 | 87 | 1015.8 |
| 20260504060131 | 3 | 242 | 0.0 | 0.0 | 0.00 | 0.00 | 0.00 | 86 | 1016.2 |
| 20260504050559 | 2 | 242 | 0.0 | 0.0 | 0.00 | 0.00 | 0.00 | 85 | 1016.1 |
| 20260504045553 | 2 | 242 | 0.0 | 0.0 | 0.00 | 0.00 | 0.00 | 82 | 1016.2 |
| 20260504045048 | 2 | 242 | 0.0 | 0.0 | 0.00 | 0.00 | 0.00 | 82 | 1016.3 |
| 20260504044546 | 2 | 242 | 0.0 | 0.0 | 0.00 | 0.00 | 0.00 | 82 | 1016.2 |
| 20260504044043 | 2 | 242 | 0.0 | 0.0 | 0.00 | 0.00 | 0.00 | 83 | 1016.2 |
| 20260504043540 | 2 | 242 | 0.0 | 0.0 | 0.00 | 0.00 | 0.00 | 82 | 1016.2 |
| 20260504043037 | 2 | 242 | 0.0 | 0.0 | 0.00 | 0.00 | 0.00 | 81 | 1016.4 |
| 20260504042534 | 2 | 242 | 0.0 | 0.0 | 0.00 | 0.00 | 0.00 | 81 | 1016.3 |
| 20260504042031 | 2 | 242 | 0.0 | 0.0 | 0.00 | 0.00 | 0.00 | 81 | 1016.3 |
| 20260504041527 | 2 | 242 | 0.0 | 0.0 | 0.00 | 0.00 | 0.00 | 84 | 1016.4 |
| 20260504041023 | 2 | 242 | 0.0 | 0.0 | 0.00 | 0.00 | 0.00 | 83 | 1016.3 |
| 20260504040521 | 2 | 242 | 0.0 | 0.0 | 0.00 | 0.00 | 0.00 | 84 | 1016.3 |
| 20260504040018 | 2 | 242 | 0.0 | 0.0 | 0.00 | 0.00 | 0.00 | 82 | 1016.2 |
| 20260504035515 | 2 | 242 | 0.0 | 0.0 | 0.00 | 0.00 | 0.00 | 82 | 1016.2 |
| 20260504035010 | 2 | 242 | 0.0 | 0.0 | 0.00 | 0.00 | 0.00 | 83 | 1016.2 |
| 20260504034508 | 2 | 242 | 0.0 | 0.0 | 0.00 | 0.00 | 0.00 | 83 | 1016.3 |
| 20260504034005 | 3 | 242 | 0.0 | 0.0 | 0.00 | 0.00 | 0.00 | 81 | 1016.2 |
| 20260504033503 | 3 | 242 | 0.0 | 0.0 | 0.00 | 0.00 | 0.00 | 81 | 1016.1 |
| 20260504033000 | 3 | 242 | 0.0 | 0.0 | 0.00 | 0.00 | 0.00 | 79 | 1015.9 |
| 20260504032457 | 3 | 242 | 0.0 | 0.0 | 0.00 | 0.00 | 0.00 | 80 | 1016.0 |
| 20260504031953 | 3 | 242 | 0.0 | 0.0 | 0.00 | 0.00 | 0.00 | 78 | 1015.9 |
| 20260504031450 | 3 | 242 | 0.0 | 0.0 | 0.00 | 0.00 | 0.00 | 78 | 1015.9 |
| 20260504030947 | 3 | 242 | 0.0 | 0.0 | 0.00 | 0.00 | 0.00 | 78 | 1015.9 |
| 20260504030444 | 3 | 242 | 0.0 | 0.0 | 0.00 | 0.00 | 0.00 | 78 | 1016.0 |
| 20260504025940 | 3 | 242 | 0.0 | 0.0 | 0.00 | 0.00 | 0.00 | 77 | 1016.0 |
| 20260504025437 | 4 | 242 | 0.0 | 0.0 | 0.00 | 0.00 | 0.00 | 76 | 1016.0 |
| 20260504024934 | 4 | 242 | 0.0 | 0.0 | 0.00 | 0.00 | 0.00 | 77 | 1016.2 |
| 20260504024431 | 4 | 242 | 0.0 | 0.0 | 0.00 | 0.00 | 0.00 | 78 | 1016.0 |
| 20260504023928 | 4 | 242 | 0.0 | 0.0 | 0.00 | 0.00 | 0.00 | 76 | 1016.0 |
| 20260504023425 | 4 | 242 | 0.0 | 0.0 | 0.00 | 0.00 | 0.00 | 76 | 1016.0 |
| 20260504022920 | 5 | 242 | 0.0 | 0.0 | 0.00 | 0.00 | 0.00 | 70 | 1016.0 |
| 20260504022417 | 5 | 242 | 0.0 | 0.0 | 0.00 | 0.00 | 0.00 | 73 | 1015.9 |
| 20260504021914 | 5 | 242 | 0.0 | 0.0 | 0.00 | 0.00 | 0.00 | 71 | 1016.1 |
| 20260504021411 | 5 | 242 | 0.0 | 0.0 | 0.00 | 0.00 | 0.00 | 71 | 1015.8 |
| 20260504020908 | 5 | 242 | 0.0 | 0.0 | 0.00 | 0.00 | 0.00 | 73 | 1015.8 |
| 20260504020404 | 5 | 242 | 0.0 | 0.0 | 0.00 | 0.00 | 0.00 | 72 | 1015.8 |
| 20260504015900 | 5 | 242 | 0.0 | 0.0 | 0.00 | 0.00 | 0.00 | 70 | 1015.7 |
| 20260504015357 | 6 | 242 | 0.0 | 0.0 | 0.00 | 0.00 | 0.00 | 69 | 1015.8 |
| 20260504014853 | 5 | 242 | 0.0 | 0.0 | 0.00 | 0.00 | 0.00 | 71 | 1015.7 |
| 20260504014349 | 5 | 242 | 0.0 | 0.0 | 0.00 | 0.00 | 0.00 | 69 | 1015.6 |
| 20260504013847 | 5 | 242 | 0.0 | 0.0 | 0.00 | 0.00 | 0.00 | 72 | 1015.7 |
| 20260504013345 | 5 | 242 | 0.0 | 0.0 | 0.00 | 0.00 | 0.00 | 70 | 1015.7 |
| 20260504012841 | 6 | 242 | 0.0 | 0.0 | 0.00 | 0.00 | 0.00 | 70 | 1015.5 |
| 20260504012339 | 6 | 242 | 0.0 | 0.0 | 0.00 | 0.00 | 0.00 | 69 | 1015.4 |
| 20260504011836 | 6 | 242 | 0.0 | 0.0 | 0.00 | 0.00 | 0.00 | 67 | 1015.3 |
| 20260504011332 | 6 | 242 | 0.0 | 0.0 | 0.00 | 0.00 | 0.00 | 67 | 1015.2 |
| 20260504010828 | 6 | 242 | 0.0 | 0.0 | 0.00 | 0.00 | 0.00 | 66 | 1015.4 |
| 20260504010324 | 6 | 242 | 0.0 | 0.0 | 0.00 | 0.00 | 0.00 | 63 | 1015.2 |
| 20260504005821 | 7 | 242 | 0.0 | 0.0 | 0.00 | 0.00 | 0.00 | 62 | 1015.4 |
| 20260504005318 | 7 | 242 | 0.0 | 0.0 | 0.00 | 0.00 | 0.00 | 58 | 1015.5 |
| 20260504004816 | 7 | 242 | 0.0 | 0.0 | 0.00 | 0.00 | 0.00 | 58 | 1015.4 |
| 20260504004313 | 8 | 242 | 0.0 | 0.0 | 0.00 | 0.00 | 0.00 | 60 | 1015.4 |
| 20260504003809 | 8 | 242 | 0.0 | 0.0 | 0.00 | 0.00 | 0.00 | 56 | 1015.4 |
| 20260504003307 | 9 | 242 | 0.0 | 0.0 | 0.00 | 0.00 | 0.00 | 52 | 1015.2 |
| 20260504002803 | 10 | 242 | 0.0 | 0.0 | 0.00 | 0.00 | 0.00 | 47 | 1015.4 |
| 20260504002300 | 10 | 242 | 0.0 | 0.0 | 0.00 | 0.00 | 0.00 | 48 | 1015.3 |
| 20260504001757 | 11 | 242 | 0.0 | 1.6 | 0.00 | 0.00 | 0.00 | 43 | 1015.3 |
| 20260504001254 | 11 | 242 | 0.0 | 3.2 | 0.00 | 0.00 | 0.00 | 43 | 1015.2 |
| 20260504000751 | 11 | 220 | 1.6 | 3.2 | 0.00 | 0.00 | 0.00 | 41 | 1015.1 |
| 20260504000248 | 12 | 234 | 0.0 | 3.2 | 0.00 | 0.00 | 0.00 | 38 | 1015.2 |
| 20260503235746 | 12 | 220 | 0.0 | 1.6 | 0.00 | 0.00 | 0.00 | 38 | 1015.1 |
| 20260503235243 | 12 | 219 | 0.0 | 3.2 | 0.00 | 0.00 | 0.00 | 38 | 1015.1 |
| 20260503234741 | 12 | 241 | 1.6 | 4.8 | 0.00 | 0.00 | 0.00 | 36 | 1015.0 |
| 20260503234239 | 12 | 225 | 0.0 | 4.8 | 0.00 | 0.00 | 0.00 | 37 | 1015.0 |
| 20260503233735 | 13 | 136 | 1.6 | 3.2 | 0.00 | 0.00 | 0.00 | 36 | 1015.2 |
| 20260503233231 | 13 | 233 | 3.2 | 4.8 | 0.00 | 0.00 | 0.00 | 35 | 1015.0 |
| 20260503232728 | 13 | 217 | 1.6 | 4.8 | 0.00 | 0.00 | 0.00 | 34 | 1015.0 |
| 20260503232226 | 13 | 206 | 3.2 | 6.4 | 0.00 | 0.00 | 0.00 | 34 | 1015.0 |
| 20260503231724 | 13 | 267 | 4.8 | 6.4 | 0.00 | 0.00 | 0.00 | 35 | 1014.9 |
| 20260503231220 | 13 | 210 | 3.2 | 4.8 | 0.00 | 0.00 | 0.00 | 34 | 1015.0 |
| 20260503230716 | 14 | 339 | 1.6 | 3.2 | 0.00 | 0.00 | 0.00 | 35 | 1015.0 |
| 20260503230214 | 14 | 197 | 6.4 | 6.4 | 0.00 | 0.00 | 0.00 | 32 | 1014.9 |
| 20260503225711 | 14 | 152 | 3.2 | 6.4 | 0.00 | 0.00 | 0.00 | 35 | 1014.9 |
| 20260503225211 | 14 | 236 | 6.4 | 14.5 | 0.00 | 0.00 | 0.00 | 35 | 1014.9 |
| 20260503224709 | 14 | 317 | 0.0 | 4.8 | 0.00 | 0.00 | 0.00 | 34 | 1014.9 |
| 20260503224207 | 14 | 309 | 0.0 | 0.0 | 0.00 | 0.00 | 0.00 | 37 | 1014.8 |
| 20260503223704 | 14 | 273 | 0.0 | 4.8 | 0.00 | 0.00 | 0.00 | 33 | 1014.8 |
| 20260503223201 | 15 | 251 | 4.8 | 9.7 | 0.00 | 0.00 | 0.00 | 33 | 1014.8 |
| 20260503222658 | 15 | 248 | 1.6 | 6.4 | 0.00 | 0.00 | 0.00 | 32 | 1014.9 |
| 20260503222155 | 15 | 215 | 0.0 | 12.9 | 0.00 | 0.00 | 0.00 | 32 | 1014.9 |
| 20260503221654 | 15 | 230 | 6.4 | 9.7 | 0.00 | 0.00 | 0.00 | 32 | 1015.0 |
| 20260503221150 | 15 | 257 | 3.2 | 12.9 | 0.00 | 0.00 | 0.00 | 31 | 1014.9 |
| 20260503220647 | 15 | 222 | 3.2 | 4.8 | 0.00 | 0.00 | 0.00 | 31 | 1015.1 |
| 20260503220144 | 15 | 290 | 6.4 | 11.3 | 0.00 | 0.00 | 0.00 | 29 | 1014.8 |
| 20260503215641 | 15 | 261 | 6.4 | 11.3 | 0.00 | 0.00 | 0.00 | 30 | 1014.8 |
| 20260503215137 | 15 | 244 | 4.8 | 12.9 | 0.00 | 0.00 | 0.00 | 29 | 1015.0 |
| 20260503214636 | 15 | 248 | 6.4 | 11.3 | 0.00 | 0.00 | 0.00 | 30 | 1014.9 |
| 20260503214132 | 15 | 259 | 9.7 | 12.9 | 0.00 | 0.00 | 0.00 | 32 | 1014.9 |
| 20260503213626 | 15 | 254 | 3.2 | 14.5 | 0.00 | 0.00 | 0.00 | 32 | 1014.9 |
| 20260503213122 | 15 | 240 | 4.8 | 17.7 | 0.00 | 0.00 | 0.00 | 32 | 1015.1 |
| 20260503212620 | 15 | 268 | 6.4 | 16.1 | 0.00 | 0.00 | 0.00 | 33 | 1015.0 |
| 20260503212117 | 16 | 225 | 4.8 | 6.4 | 0.00 | 0.00 | 0.00 | 29 | 1014.9 |
| 20260503211614 | 16 | 211 | 8.0 | 12.9 | 0.00 | 0.00 | 0.00 | 33 | 1015.0 |
| 20260503211109 | 16 | 128 | 3.2 | 6.4 | 0.00 | 0.00 | 0.00 | 31 | 1015.0 |
| 20260503210601 | 16 | 191 | 4.8 | 6.4 | 0.00 | 0.00 | 0.00 | 31 | 1015.1 |
| 20260503210056 | 16 | 193 | 6.4 | 9.7 | 0.00 | 0.00 | 0.00 | 33 | 1014.9 |
| 20260503205553 | 16 | 56 | 8.0 | 12.9 | 0.00 | 0.00 | 0.00 | 32 | 1014.7 |
| 20260503205049 | 16 | 181 | 3.2 | 6.4 | 0.00 | 0.00 | 0.00 | 30 | 1014.9 |
| 20260503204546 | 15 | 260 | 4.8 | 6.4 | 0.00 | 0.00 | 0.00 | 32 | 1015.0 |
| 20260503204043 | 15 | 354 | 1.6 | 9.7 | 0.00 | 0.00 | 0.00 | 33 | 1015.2 |
| 20260503203535 | 16 | 229 | 6.4 | 9.7 | 0.00 | 0.00 | 0.00 | 31 | 1014.9 |
| 20260503203032 | 16 | 328 | 4.8 | 6.4 | 0.00 | 0.00 | 0.00 | 34 | 1015.2 |
| 20260503202530 | 16 | 28 | 3.2 | 14.5 | 0.00 | 0.00 | 0.00 | 30 | 1015.2 |
| 20260503202027 | 16 | 257 | 8.0 | 11.3 | 0.00 | 0.00 | 0.00 | 31 | 1015.2 |
| 20260503201520 | 15 | 214 | 1.6 | 17.7 | 0.00 | 0.00 | 0.00 | 34 | 1015.2 |
| 20260503201017 | 16 | 274 | 3.2 | 11.3 | 0.00 | 0.00 | 0.00 | 31 | 1015.3 |
| 20260503200513 | 16 | 209 | 3.2 | 12.9 | 0.00 | 0.00 | 0.00 | 33 | 1015.4 |
| 20260503200009 | 15 | 287 | 3.2 | 12.9 | 0.00 | 0.00 | 0.00 | 33 | 1015.5 |
| 20260503195506 | 16 | 293 | 6.4 | 9.7 | 0.00 | 0.00 | 0.00 | 33 | 1015.5 |
| 20260503195002 | 16 | 35 | 6.4 | 12.9 | 0.00 | 0.00 | 0.00 | 32 | 1015.5 |
| 20260503194500 | 16 | 235 | 9.7 | 11.3 | 0.00 | 0.00 | 0.00 | 29 | 1015.7 |
| 20260503193955 | 16 | 234 | 4.8 | 9.7 | 0.00 | 0.00 | 0.00 | 33 | 1015.6 |
| 20260503193451 | 15 | 268 | 3.2 | 9.7 | 0.00 | 0.00 | 0.00 | 32 | 1015.8 |
| 20260503192947 | 15 | 186 | 4.8 | 22.5 | 0.00 | 0.00 | 0.00 | 35 | 1015.9 |
| 20260503192444 | 15 | 316 | 4.8 | 17.7 | 0.00 | 0.00 | 0.00 | 38 | 1015.8 |
| 20260503191939 | 15 | 90 | 1.6 | 17.7 | 0.00 | 0.00 | 0.00 | 33 | 1016.0 |
| 20260503191437 | 16 | 68 | 6.4 | 11.3 | 0.00 | 0.00 | 0.00 | 33 | 1015.8 |
| 20260503190933 | 16 | 215 | 9.7 | 12.9 | 0.00 | 0.00 | 0.00 | 30 | 1015.9 |
| 20260503190431 | 15 | 280 | 4.8 | 16.1 | 0.00 | 0.00 | 0.00 | 33 | 1015.9 |
| 20260503185927 | 15 | 90 | 4.8 | 12.9 | 0.00 | 0.00 | 0.00 | 35 | 1016.1 |
| 20260503185424 | 14 | 194 | 3.2 | 6.4 | 0.00 | 0.00 | 0.00 | 34 | 1016.1 |
| 20260503184923 | 15 | 281 | 9.7 | 16.1 | 0.00 | 0.00 | 0.00 | 30 | 1016.2 |
| 20260503184420 | 14 | 254 | 6.4 | 12.9 | 0.00 | 0.00 | 0.00 | 32 | 1016.3 |
| 20260503183916 | 13 | 325 | 8.0 | 17.7 | 0.00 | 0.00 | 0.00 | 32 | 1016.3 |
| 20260503183413 | 14 | 321 | 9.7 | 16.1 | 0.00 | 0.00 | 0.00 | 35 | 1016.6 |
| 20260503182910 | 14 | 315 | 9.7 | 14.5 | 0.00 | 0.00 | 0.00 | 32 | 1016.5 |
| 20260503182409 | 13 | 290 | 9.7 | 12.9 | 0.00 | 0.00 | 0.00 | 32 | 1016.5 |
| 20260503181906 | 13 | 263 | 9.7 | 20.9 | 0.00 | 0.00 | 0.00 | 34 | 1016.5 |
| 20260503181402 | 13 | 261 | 8.0 | 20.9 | 0.00 | 0.00 | 0.00 | 36 | 1016.4 |
| 20260503180859 | 13 | 323 | 4.8 | 6.4 | 0.00 | 0.00 | 0.00 | 33 | 1016.5 |
| 20260503180357 | 13 | 351 | 12.9 | 14.5 | 0.00 | 0.00 | 0.00 | 37 | 1016.4 |
| 20260503175853 | 13 | 5 | 3.2 | 16.1 | 0.00 | 0.00 | 0.00 | 34 | 1016.5 |
| 20260503175352 | 14 | 260 | 4.8 | 20.9 | 0.00 | 0.00 | 0.00 | 32 | 1016.5 |
| 20260503174847 | 13 | 279 | 4.8 | 11.3 | 0.00 | 0.00 | 0.00 | 32 | 1016.8 |
| 20260503174345 | 14 | 259 | 6.4 | 12.9 | 0.00 | 0.00 | 0.00 | 34 | 1016.7 |
| 20260503173845 | 14 | 214 | 4.8 | 16.1 | 0.00 | 0.00 | 0.00 | 35 | 1016.6 |
| 20260503173342 | 13 | 269 | 4.8 | 17.7 | 0.00 | 0.00 | 0.00 | 36 | 1016.7 |
| 20260503172838 | 13 | 225 | 6.4 | 14.5 | 0.00 | 0.00 | 0.00 | 35 | 1017.1 |
| 20260503172336 | 12 | 224 | 6.4 | 14.5 | 0.00 | 0.00 | 0.00 | 34 | 1017.1 |
| 20260503171832 | 13 | 238 | 4.8 | 14.5 | 0.00 | 0.00 | 0.00 | 35 | 1016.9 |
| 20260503171329 | 13 | 252 | 6.4 | 11.3 | 0.00 | 0.00 | 0.00 | 36 | 1016.9 |
| 20260503170826 | 13 | 246 | 4.8 | 11.3 | 0.00 | 0.00 | 0.00 | 35 | 1017.2 |
| 20260503170323 | 12 | 351 | 1.6 | 11.3 | 0.00 | 0.00 | 0.00 | 42 | 1017.2 |
| 20260503150715 | 11 | 261 | 4.8 | 11.3 | 0.00 | 0.00 | 0.00 | 44 | 1018.3 |
| 20260503150211 | 10 | 222 | 8.0 | 14.5 | 0.00 | 0.00 | 0.00 | 47 | 1018.3 |
| 20260503140136 | 8 | 296 | 6.4 | 12.9 | 0.00 | 0.00 | 0.00 | 52 | 1018.3 |
| 20260503131105 | 7 | 234 | 1.6 | 4.8 | 0.00 | 0.00 | 0.00 | 58 | 1018.6 |
| 20260503130603 | 7 | 213 | 4.8 | 6.4 | 0.00 | 0.00 | 0.00 | 58 | 1018.4 |
| 20260503110453 | 1 | 118 | 0.0 | 0.0 | 0.00 | 0.00 | 0.00 | 83 | 1017.5 |
| 20260503090338 | 2 | 230 | 0.0 | 0.0 | 0.00 | 0.00 | 0.00 | 75 | 1016.2 |
| 20260503081306 | 3 | 241 | 3.2 | 3.2 | 0.00 | 0.00 | 0.00 | 73 | 1016.0 |
| 20260503080802 | 3 | 261 | 0.0 | 1.6 | 0.00 | 0.00 | 0.00 | 74 | 1016.1 |
| 20260503080259 | 3 | 267 | 1.6 | 3.2 | 0.00 | 0.00 | 0.00 | 73 | 1016.1 |
| 20260503072736 | 4 | 212 | 1.6 | 4.8 | 0.00 | 0.00 | 0.00 | 71 | 1016.0 |
| 20260503072232 | 4 | 230 | 1.6 | 4.8 | 0.00 | 0.00 | 0.00 | 72 | 1015.9 |
| 20260503071729 | 4 | 236 | 3.2 | 6.4 | 0.00 | 0.00 | 0.00 | 71 | 1015.7 |